sat.trackr.live / text

‹ back to catalog

STARLINK-11101 [DTC]

NORAD 59715 · 2024-088H

PAYLOAD ACTIVE UNKNOWN

§ Identity

Operator
Country
US
Launch date
2024-05-10
Launch site
AFWTR
Launch vehicle
Mass (kg)
RCS (m²)

Purposes: comms

External: N2YO · Heavens-Above · Gunter

§ Orbital elements

Epoch: 2026-05-24T20:08:41.330400Z

Period
91.74 min
Inclination
53.1584°
Eccentricity
0.0001336
Mean motion
15.69710081 rev/d
Perigee alt
358.8 km
Apogee alt
360.6 km
Semi-major
6,737.9 km
B*
1.6879e-5
RAAN
310.7845°
Arg perigee
90.8287°
Mean anomaly
269.2884°
Rev number
11,823

§ Raw data

STARLINK-11101 [DTC]1 59715U 24088H   26144.83936725  .00001456  00000+0  16879-4 0  99992 59715  53.1584 310.7845 0001336  90.8287 269.2884 15.69710081118232

JSON: /api/v1/satellites/59715 · /tle

For live sub-satellite position, see the globe view (requires WebGL).

§ Visibility from observer

Set your observer location to see the next 7 days of passes ≥ 10°. The values pass through the URL so the page stays shareable.

No JS? Fill the form by hand. The geolocation button needs JavaScript.